Location: Unspecified
(0.0000°N, 0.0000°E)
Time: 06:31:12
(UTC+00:00)

Vanguard 2 - Pass Details

Date: 27 November 2019
Orbit: 553 x 2938 km, 32.9° (Epoch: 10 December)

Event Time Altitude Azimuth Distance (km) Brightness Sun altitude
Exits shadow 04:09:42 27° 277° (W) 4,489 10.8 -22.7°
Maximum altitude 04:18:54 42° 325° (NW) 3,600 10.5 -20.6°
Drops below altitude 10° 04:32:49 10° 32° (NNE) 4,859 11.7 -17.4°
Sets 04:36:27 0° 40° (NE) 5,571 12.2 -16.5°
